[[{"header":{"parameterUnit":"m.s-1","parameterCategory":1,"la1":30.2991,"la2":30.254,"lo1":-89.0895,"lo2":-89.0444,"dy":0.0017,"dx":0.0017,"nx":28,"ny":28,"refTime":"2024-03-10T21:00:00:Z","depth":0,"parameterNumber":2,"parameterNumberName":"U-component_of_WINDS"},"data":[0,0,0,0,0,0,0,0,0,0,0,0,0,0,0,0,0,0,0,0,0,0,0,0,0,0,0,0,0,0,0,0,0,0,0,0,0,0,0,0,0,0,0,0,0,0,0,0,0,0,0,0,0,0,0,0,0,0,0.0764,0.0763,0,0.0742,0.0741,0.0741,0.0758,0.0758,0.0759,0.076,0.0734,0.0732,0.0731,0,0,0,0,0,0,0,0,0,0,0,0,0,0.0817,0.0816,0.0764,0.0763,0.0763,0.0742,0.0741,0.0741,0.0758,0.0759,0.0759,0.076,0.0734,0.0732,0.0731,0,0,0,0,0,0,0,0,0,0,0,0,0,0.0794,0.0815,0.0764,0.0769,0.0769,0.0742,0.0741,0.0741,0.0757,0.0759,0.076,0.0761,0.0735,0.0733,0.0731,0.0696,0,0,0.0724,0.0723,0,0,0,0,0,0,0,0,0.0795,0.0792,0.0768,0.0768,0.0769,0.0754,0.0751,0.0726,0.0757,0.0762,0.076,0.0761,0.0739,0.0737,0.073,0.0695,0.0694,0.0724,0.0723,0.0722,0.0721,0,0,0,0,0,0,0,0.0797,0.0793,0.0755,0.0768,0.0768,0.0771,0.0769,0.0746,0.0744,0.0761,0.0763,0.076,0.0739,0.0732,0.073,0.0693,0.0724,0.0722,0.0721,0.072,0.0627,0.0626,0,0,0,0,0,0,0.0798,0.0794,0.0756,0.0754,0.0785,0.0769,0.0767,0.0757,0.0745,0.0744,0.0759,0.0761,0.0735,0.0732,0.0729,0.0686,0.0722,0.072,0.0719,0.0629,0.0627,0.0626,0,0,0,0,0,0,0.08,0.0795,0.0756,0.0775,0.077,0.0767,0.0756,0.0756,0.0749,0.0743,0.0743,0.0752,0.0736,0.0732,0.0704,0.0686,0.0719,0.0717,0.063,0.0628,0.0626,0.0602,0,0,0,0,0,0,0.0801,0.0795,0.0782,0.0774,0.0769,0.0733,0.0755,0.0755,0.0746,0.0748,0.0736,0.0735,0.0736,0.0707,0.0702,0.0683,0.0716,0.0632,0.0629,0.0627,0.0604,0.0599,0.0595,0,0,0,0,0,0.0803,0.0776,0.0782,0.0777,0.0753,0.0732,0.0729,0.0731,0.0744,0.0731,0.0727,0.0736,0.0689,0.0704,0.0699,0.0679,0.0633,0.063,0.0627,0.0606,0.06,0.0595,0,0,0,0,0,0,0.078,0.0775,0.0781,0.0751,0.0742,0.0735,0.0718,0.0725,0.0711,0.0713,0.0717,0.0714,0.0685,0.068,0.0696,0.0645,0.0663,0.0659,0.0649,0.0643,0.0639,0.0639,0.0714,0,0,0,0,0,0.0772,0.0756,0.0752,0.0725,0.0721,0.072,0.0711,0.0714,0.0704,0.07,0.0694,0.0683,0.0666,0.0655,0.0639,0.0604,0.0601,0.0588,0.0584,0.058,0.0576,0.0556,0.055,0.0617,0.0617,0.0617,0,0,0.0754,0.0749,0.0739,0.0721,0.0714,0.0696,0.0717,0.0697,0.0683,0.0697,0.067,0.0666,0.0654,0.0622,0.0608,0.0617,0.0557,0.0577,0.0574,0.0571,0.0552,0.0546,0.054,0.0615,0.0615,0.0616,0,0,0.0712,0.0708,0.0685,0.0678,0.0668,0.0668,0.0663,0.0655,0.0653,0.0627,0.0636,0.062,0.0591,0.0582,0.0573,0.0529,0.0536,0.0524,0.0499,0.048,0.0475,0.047,0.0453,0.0446,0.052,0.052,0.052,0,0.069,0.0665,0.0671,0.0651,0.0642,0.0656,0.0632,0.0625,0.061,0.0603,0.0614,0.0577,0.057,0.0537,0.0526,0.0519,0.0512,0.0524,0.0475,0.0471,0.0466,0.045,0.0443,0.0519,0.0519,0.0519,0.0519,0,0.0638,0.0621,0.0603,0.0589,0.0579,0.0557,0.0559,0.0548,0.0553,0.0551,0.0524,0.0517,0.0499,0.0492,0.0496,0.0458,0.0464,0.0475,0.0493,0.0458,0.0442,0.0436,0.0516,0.0517,0.0517,0.0518,0,0,0.0578,0.057,0.0563,0.0557,0.0548,0.0534,0.0513,0.0497,0.0486,0.0476,0.0457,0.0433,0.0443,0.0434,0.0437,0.0421,0.0384,0.0434,0.0433,0.0423,0.0341,0.0331,0.0323,0.039,0.0389,0.0388,0.0341,0,0.0534,0.0498,0.0504,0.0468,0.0451,0.0464,0.0445,0.0437,0.0436,0.042,0.0419,0.0401,0.0417,0.0411,0.0396,0.0392,0.0368,0.0396,0.037,0.0369,0.037,0.0315,0.0305,0.0261,0.0335,0.0334,0.0334,0,0.0477,0.0466,0.0429,0.0423,0.0416,0.0399,0.0385,0.0371,0.0362,0.0362,0.0352,0.0359,0.0336,0.0357,0.0325,0.0344,0.0334,0.0331,0.033,0.0325,0.0347,0.0307,0.0247,0.0239,0.0324,0.0325,0.0326,0,0.0435,0.0411,0.0385,0.038,0.0373,0.036,0.0356,0.0349,0.0339,0.0327,0.032,0.0305,0.0296,0.0284,0.0286,0.0301,0.0253,0.0274,0.025,0.025,0.0237,0.0237,0.0172,0.0235,0.0235,0.0236,0.0236,0,0.0383,0.0359,0.0366,0.035,0.0324,0.0331,0.0304,0.0302,0.0295,0.0278,0.0289,0.0273,0.0278,0.0261,0.0263,0.0235,0.0231,0.023,0.023,0.0227,0.0227,0.0218,0.0221,0.0234,0.0234,0.0235,0.0235,0,0.033,0.0334,0.0307,0.0303,0.0301,0.0282,0.0278,0.0262,0.0263,0.0241,0.0236,0.0236,0.0218,0.0219,0.0198,0.0199,0.0164,0.0169,0.0167,0.0167,0.0143,0.0144,0.0068,0.0057,0.013,0.0129,0.0129,0,0.0296,0.0278,0.0272,0.0262,0.0258,0.0242,0.0232,0.0239,0.0228,0.0218,0.0203,0.0186,0.0172,0.0141,0.0138,0.0122,0.0125,0.01,0.0122,0.012,0.0122,0.0122,0.0119,0.0094,0.0093,0.0092,0.0092,0,0.0233,0.0236,0.0223,0.021,0.0199,0.0188,0.0179,0.017,0.0176,0.0164,0.0145,0.0135,0.0114,0.0096,0.008,0.0075,0.0083,0.0085,0.0079,0.0074,0.0073,0.0071,0.0152,0.0086,0.0087,0.0087,0.0087,0.0088,0.0187,0.0171,0.0165,0.0149,0.0144,0.0135,0.012,0.012,0.0105,0.0089,0.0094,0.0073,0.0065,0.0045,0.0039,0.0022,0.0031,0.0021,0.0019,0.0015,0.0012,0.0078,0.0019,0.0019,0.002,0.002,0.002,0,0.0123,0.012,0.0106,0.0093,0.0081,0.0093,0.0084,0.0072,0.0054,0.0046,0.0033,0.0011,-0.0006,-0.0009,-0.0025,-0.0039,-0.0035,-0.0043,-0.0044,-0.0046,0.0006,0.0012,-0.0046,-0.0046,-0.0046,-0.0046,-0.0046,-0.0046,0.0088,0.0062,0.0064,0.0035,0.0033,0.0013,0.0006,-0.0002,-0.0008,-0.0032,-0.0045,-0.0046,-0.0053,-0.0069,-0.0085,-0.0085,-0.0093,-0.0103,-0.0103,-0.0056,-0.0049,-0.0043,-0.0037,-0.0104,-0.0104,-0.0153,-0.0153,-0.0154]},{"header":{"parameterUnit":"m.s-1","parameterCategory":1,"la1":30.2991,"la2":30.254,"lo1":-89.0895,"lo2":-89.0444,"dy":0.0017,"dx":0.0017,"nx":28,"ny":28,"refTime":"2024-03-10T21:00:00:Z","depth":0,"parameterNumber":3,"parameterNumberName":"V-component_of_WINDS"},"data":[0,0,0,0,0,0,0,0,0,0,0,0,0,0,0,0,0,0,0,0,0,0,0,0,0,0,0,0,0,0,0,0,0,0,0,0,0,0,0,0,0,0,0,0,0,0,0,0,0,0,0,0,0,0,0,0,0,0,-4.2045,-4.2046,0,-4.218,-4.2182,-4.2183,-4.213,-4.2126,-4.2123,-4.212,-4.2259,-4.2265,-4.2272,0,0,0,0,0,0,0,0,0,0,0,0,0,-4.174,-4.1746,-4.2045,-4.2046,-4.2048,-4.218,-4.2182,-4.2183,-4.213,-4.2126,-4.2122,-4.2119,-4.2257,-4.2264,-4.2272,0,0,0,0,0,0,0,0,0,0,0,0,0,-4.1874,-4.1748,-4.2044,-4.2037,-4.2038,-4.2179,-4.2182,-4.2184,-4.2131,-4.2126,-4.2121,-4.2117,-4.2254,-4.2264,-4.2274,-4.243,0,0,-4.2304,-4.2308,0,0,0,0,0,0,0,0,-4.1866,-4.1885,-4.2037,-4.2038,-4.2039,-4.2133,-4.2125,-4.2266,-4.2132,-4.2096,-4.212,-4.2115,-4.2221,-4.2233,-4.2269,-4.2436,-4.2442,-4.2305,-4.2311,-4.2315,-4.2318,0,0,0,0,0,0,0,-4.1857,-4.1879,-4.2098,-4.2039,-4.204,-4.2027,-4.2041,-4.2152,-4.2183,-4.2099,-4.2095,-4.2112,-4.2221,-4.226,-4.2272,-4.2444,-4.2305,-4.2313,-4.2319,-4.2323,-4.2748,-4.2753,0,0,0,0,0,0,-4.1847,-4.1872,-4.2094,-4.2102,-4.1939,-4.2037,-4.2052,-4.2108,-4.2182,-4.2189,-4.2116,-4.2109,-4.2245,-4.226,-4.2276,-4.2466,-4.2315,-4.2324,-4.233,-4.2742,-4.2749,-4.2755,0,0,0,0,0,0,-4.1841,-4.1868,-4.2088,-4.1986,-4.2013,-4.2047,-4.211,-4.2113,-4.2152,-4.2195,-4.22,-4.215,-4.2242,-4.2262,-4.2392,-4.247,-4.2329,-4.2338,-4.2736,-4.2744,-4.2752,-4.2845,0,0,0,0,0,0,-4.1833,-4.1866,-4.1926,-4.1988,-4.2019,-4.2202,-4.2115,-4.2119,-4.2169,-4.2161,-4.2228,-4.2235,-4.224,-4.2378,-4.2402,-4.2481,-4.2346,-4.2729,-4.274,-4.2749,-4.2835,-4.2855,-4.2872,0,0,0,0,0,-4.1822,-4.1946,-4.1929,-4.1956,-4.2094,-4.2207,-4.2225,-4.2228,-4.2175,-4.2236,-4.2264,-4.2233,-4.2457,-4.2392,-4.2419,-4.2501,-4.2725,-4.2737,-4.2748,-4.2827,-4.2851,-4.2871,0,0,0,0,0,0,-4.1892,-4.1954,-4.1936,-4.2084,-4.2141,-4.2198,-4.2274,-4.2253,-4.2326,-4.2316,-4.2316,-4.2332,-4.2466,-4.2496,-4.2423,-4.2657,-4.2583,-4.2601,-4.2633,-4.2656,-4.2675,-4.2665,-4.2354,0,0,0,0,0,-4.1925,-4.2011,-4.206,-4.2186,-4.2216,-4.224,-4.2289,-4.2287,-4.2346,-4.237,-4.2407,-4.2465,-4.2548,-4.2604,-4.2683,-4.2838,-4.2853,-4.2908,-4.2927,-4.2942,-4.2958,-4.3044,-4.3069,-4.2794,-4.2794,-4.2793,0,0,-4.1994,-4.2038,-4.2092,-4.2202,-4.2245,-4.2335,-4.2261,-4.2359,-4.2426,-4.2384,-4.251,-4.2539,-4.2604,-4.2748,-4.2813,-4.2777,-4.3037,-4.2957,-4.2969,-4.2977,-4.3059,-4.3085,-4.3108,-4.2802,-4.28,-4.2799,0,0,-4.2165,-4.2206,-4.2317,-4.2362,-4.2429,-4.2445,-4.2471,-4.2532,-4.255,-4.2675,-4.2647,-4.2726,-4.2869,-4.2918,-4.2961,-4.315,-4.3125,-4.3176,-4.3273,-4.3357,-4.3378,-4.3398,-4.3467,-4.3492,-4.3191,-4.3191,-4.3192,0,-4.2242,-4.2376,-4.2376,-4.2477,-4.2526,-4.2492,-4.2605,-4.2648,-4.2738,-4.2773,-4.2731,-4.2912,-4.2953,-4.3108,-4.3154,-4.319,-4.3221,-4.3169,-4.3375,-4.3395,-4.3413,-4.3479,-4.3505,-4.3197,-4.3197,-4.3196,-4.3195,0,-4.2468,-4.2562,-4.2642,-4.2731,-4.2788,-4.2894,-4.2911,-4.2969,-4.2961,-4.2981,-4.311,-4.3158,-4.3248,-4.3284,-4.3277,-4.3438,-4.3414,-4.3374,-4.33,-4.3445,-4.3507,-4.3532,-4.3206,-4.3204,-4.3202,-4.32,0,0,-4.2689,-4.2775,-4.2805,-4.2845,-4.2917,-4.2989,-4.3093,-4.3181,-4.3232,-4.3294,-4.3383,-4.3505,-4.3468,-4.3517,-4.3515,-4.3589,-4.3738,-4.3539,-4.3541,-4.3576,-4.392,-4.3952,-4.3981,-4.372,-4.3725,-4.3729,-4.3916,0,-4.2868,-4.3051,-4.3054,-4.3223,-4.331,-4.3279,-4.337,-4.3424,-4.3445,-4.3522,-4.3545,-4.3632,-4.3576,-4.3606,-4.3677,-4.3705,-4.3807,-4.3691,-4.3804,-4.3808,-4.3791,-4.4014,-4.4047,-4.4221,-4.394,-4.3944,-4.3947,0,-4.3101,-4.3172,-4.3349,-4.3409,-4.3446,-4.3527,-4.3608,-4.3681,-4.3742,-4.3752,-4.3807,-4.3794,-4.3901,-4.3822,-4.3969,-4.389,-4.3936,-4.3957,-4.3964,-4.3976,-4.3888,-4.4034,-4.4277,-4.4304,-4.3985,-4.3982,-4.3979,0,-4.3247,-4.3386,-4.3511,-4.3546,-4.3618,-4.3676,-4.3709,-4.3765,-4.3817,-4.3887,-4.3921,-4.4003,-4.4048,-4.4111,-4.4121,-4.4062,-4.427,-4.4191,-4.4282,-4.4283,-4.4329,-4.4327,-4.4585,-4.4355,-4.4355,-4.4355,-4.4354,0,-4.3447,-4.3558,-4.3578,-4.3655,-4.3778,-4.3779,-4.3901,-4.3929,-4.3979,-4.4061,-4.4038,-4.4115,-4.4122,-4.4202,-4.421,-4.4332,-4.4352,-4.4364,-4.4365,-4.4367,-4.4366,-4.4399,-4.4388,-4.4361,-4.436,-4.4359,-4.4357,0,-4.3632,-4.365,-4.3784,-4.3841,-4.3858,-4.3946,-4.3995,-4.4069,-4.4087,-4.4192,-4.4216,-4.4245,-4.4338,-4.4353,-4.4462,-4.4467,-4.4614,-4.4602,-4.4594,-4.4594,-4.4685,-4.4677,-4.4975,-4.5015,-4.4757,-4.476,-4.4762,0,-4.376,-4.3845,-4.3911,-4.3964,-4.4,-4.4086,-4.414,-4.4144,-4.4201,-4.4277,-4.4342,-4.4432,-4.4505,-4.4655,-4.4686,-4.4769,-4.476,-4.4858,-4.4772,-4.4772,-4.4764,-4.476,-4.4769,-4.4876,-4.4879,-4.4881,-4.4883,0,-4.3986,-4.3991,-4.4069,-4.4151,-4.4215,-4.428,-4.4341,-4.4386,-4.4398,-4.4463,-4.4558,-4.4614,-4.4726,-4.4816,-4.4899,-4.4932,-4.4911,-4.4909,-4.4935,-4.494,-4.4933,-4.494,-4.4642,-4.4903,-4.4901,-4.49,-4.4898,-4.4898,-4.4148,-4.4222,-4.4281,-4.4369,-4.4415,-4.4472,-4.4545,-4.4572,-4.4652,-4.4743,-4.474,-4.4845,-4.4903,-4.5012,-4.5051,-4.5133,-4.5102,-4.5139,-4.5149,-4.5158,-4.5168,-4.4918,-4.5148,-4.5147,-4.5147,-4.5146,-4.5146,0,-4.4375,-4.4411,-4.4492,-4.4578,-4.4647,-4.4619,-4.4685,-4.4746,-4.4838,-4.4894,-4.4967,-4.5076,-4.5164,-4.5201,-4.5288,-4.5346,-4.5338,-4.5369,-4.5366,-4.5374,-4.5191,-4.5161,-4.5374,-4.5374,-4.5374,-4.5374,-4.5374,-4.5373,-4.4501,-4.4626,-4.4637,-4.4784,-4.4819,-4.4922,-4.4962,-4.5015,-4.506,-4.5184,-4.5257,-4.528,-4.533,-4.5419,-4.5499,-4.5507,-4.5541,-4.5577,-4.5581,-4.541,-4.5387,-4.5365,-4.5337,-4.5583,-4.5584,-4.5758,-4.576,-4.5761]}]]